Flag for Canada Weather past 2 weeks in Fort Smith, Northwest Territories, Canada

Now
-4 °F

Ice fog.


Feels Like: -4 °F
Forecast: -4 / 15 °F
Wind: No wind

Location: Fort Smith

Current Time: Dec 19, 2014 at 2:48:01 AM

Latest Report: Dec 19, 2014 at 2:00 AM


Visibility: 1 mi

Pressure: 29.91 "Hg

Humidity: 84%

Dew point: -8 °F

Location of Fort SmithLocation

Historic Weather in Fort Smith — Graph

°F

Fort Smith temperature yesterday

Maximum temperature yesterday: 14 °F (at 12:00 AM)
Minimum temperature yesterday: -4 °F (at 10:00 PM)
Average temperature yesterday: 6 °F

Past Weeks' High & Low Weather Summary

 TemperatureHumidityPressure
High23 °F (Dec 9, 2:00 PM)100% (Dec 10, 12:00 AM)30.47 "Hg (Dec 10, 12:00 AM)
Low-22 °F (Dec 5, 9:00 AM)68% (Dec 5, 6:00 PM)29.29 "Hg (Dec 10, 12:00 AM)
Average5 °F85%29.96 "Hg
* Reported Dec 4 2:00 AM — Dec 19 2:00 AM, Fort Smith, Weather by CustomWeather, © 2014

Note: Actual official high and low records may vary slightly from our data, if they occured in-between our weather recording intervals... More about our weather records

Advertising

Fort Smith weather history for previous 24 hours

 ConditionsComfort  
Time TempWeatherWind HumidityBarometerVisibility
2:00 AM
Dec 19
-4 °FIce fog.No wind84%29.91 "Hg1 mi
1:00 AM-6 °FPassing clouds.2 mph84%29.92 "Hg15 mi
12:00 AM-4 °FPassing clouds.2 mph84%29.92 "Hg15 mi
11:00 PM
Dec 18
-4 °FClear.2 mph84%29.91 "Hg15 mi
10:00 PM-4 °FClear.No wind77%29.91 "Hg15 mi
9:00 PM-2 °FPassing clouds.No wind84%29.90 "Hg15 mi
8:00 PM0 °FPassing clouds.No wind84%29.90 "Hg15 mi
7:00 PM0 °FPassing clouds.2 mph84%29.89 "Hg15 mi
6:00 PM3 °FPassing clouds.No wind85%29.88 "Hg15 mi
5:00 PM5 °FPartly cloudy.2 mph92%29.88 "Hg15 mi
4:00 PM7 °FPartly cloudy.No wind85%29.88 "Hg15 mi
3:00 PM5 °FMore clouds than sun.2 mph85%29.86 "Hg15 mi
2:00 PM7 °FCloudy.No wind92%29.84 "Hg15 mi
1:00 PM7 °FBroken clouds.No wind92%29.84 "Hg15 mi
12:00 PM7 °FBroken clouds.5 mph92%29.84 "Hg15 mi
11:00 AM7 °FBroken clouds.No wind85%29.83 "Hg15 mi
10:00 AM9 °FBroken clouds.6 mph85%29.83 "Hg15 mi
9:00 AM9 °FPartly cloudy.5 mph92%29.81 "Hg15 mi
8:00 AM9 °FPartly cloudy.6 mph92%29.80 "Hg15 mi
7:00 AM9 °FPassing clouds.6 mph85%29.79 "Hg15 mi
6:00 AM9 °FPassing clouds.7 mph92%29.80 "Hg15 mi
5:00 AM10 °FPassing clouds.5 mph92%29.79 "Hg15 mi
4:00 AM10 °FPassing clouds.7 mph92%29.79 "Hg15 mi
3:00 AM12 °FPassing clouds.7 mph92%29.79 "Hg15 mi
2:00 AM12 °FPassing clouds.5 mph92%29.78 "Hg15 mi
Weather by CustomWeather, © 2014

See weather overviewHow to use our weather pages